TimeEDT,TemperatureF,Dew PointF,Humidity,Sea Level PressureIn,VisibilityMPH,Wind Direction,Wind SpeedMPH,Gust SpeedMPH,PrecipitationIn,Events,Conditions,WindDirDegrees,DateUTC
12:53 AM,64.9,59.0,81,30.08,10.0,Calm,Calm,-,N/A,,Mostly Cloudy,0,2012-03-20 04:53:00
1:53 AM,62.1,57.9,86,30.07,10.0,Calm,Calm,-,N/A,,Mostly Cloudy,0,2012-03-20 05:53:00
2:53 AM,61.0,57.9,90,30.07,10.0,Calm,Calm,-,N/A,,Scattered Clouds,0,2012-03-20 06:53:00
3:53 AM,61.0,57.0,87,30.07,10.0,Calm,Calm,-,N/A,,Mostly Cloudy,0,2012-03-20 07:53:00
4:53 AM,61.0,57.0,87,30.06,10.0,Calm,Calm,-,N/A,,Mostly Cloudy,0,2012-03-20 08:53:00
5:53 AM,61.0,57.9,90,30.08,10.0,Calm,Calm,-,N/A,,Mostly Cloudy,0,2012-03-20 09:53:00
6:53 AM,61.0,57.0,87,30.10,10.0,Calm,Calm,-,N/A,,Mostly Cloudy,0,2012-03-20 10:53:00
7:53 AM,60.1,55.9,86,30.12,10.0,Calm,Calm,-,N/A,,Scattered Clouds,0,2012-03-20 11:53:00
8:53 AM,62.1,57.9,86,30.13,10.0,Calm,Calm,-,N/A,,Scattered Clouds,0,2012-03-20 12:53:00
9:53 AM,68.0,59.0,73,30.15,10.0,Calm,Calm,-,N/A,,Scattered Clouds,0,2012-03-20 13:53:00
10:53 AM,73.0,59.0,61,30.16,10.0,Calm,Calm,-,N/A,,Scattered Clouds,0,2012-03-20 14:53:00
11:53 AM,78.1,59.0,52,30.15,10.0,Calm,Calm,-,N/A,,Mostly Cloudy,0,2012-03-20 15:53:00
12:53 PM,80.1,59.0,48,30.14,10.0,Calm,Calm,-,N/A,,Mostly Cloudy,0,2012-03-20 16:53:00
1:53 PM,81.0,57.9,45,30.11,10.0,SE,9.2,-,N/A,,Mostly Cloudy,140,2012-03-20 17:53:00
2:53 PM,82.9,57.9,42,30.09,10.0,SE,9.2,20.7,N/A,,Mostly Cloudy,140,2012-03-20 18:53:00
3:53 PM,82.9,55.0,38,30.06,10.0,SSE,10.4,21.9,N/A,,Mostly Cloudy,160,2012-03-20 19:53:00
4:53 PM,84.9,55.0,36,30.04,10.0,SSE,10.4,18.4,N/A,,Mostly Cloudy,160,2012-03-20 20:53:00
5:53 PM,84.2,51.8,33,30.03,10.0,SSE,11.5,21.9,N/A,,Mostly Cloudy,160,2012-03-20 21:53:00
6:53 PM,82.4,55.4,39,30.04,10.0,SE,10.4,-,N/A,,Scattered Clouds,130,2012-03-20 22:53:00
7:53 PM,81.0,53.1,38,30.05,10.0,SE,6.9,-,N/A,,Scattered Clouds,140,2012-03-20 23:53:00
8:53 PM,78.1,53.1,42,30.06,10.0,SSE,5.8,-,N/A,,Scattered Clouds,150,2012-03-21 00:53:00
9:53 PM,75.9,53.1,45,30.07,10.0,SSE,4.6,-,N/A,,Scattered Clouds,150,2012-03-21 01:53:00
10:53 PM,73.9,53.1,48,30.09,10.0,Calm,Calm,-,N/A,,Scattered Clouds,0,2012-03-21 02:53:00
11:53 PM,69.1,55.9,63,30.10,10.0,Calm,Calm,-,N/A,,Partly Cloudy,0,2012-03-21 03:53:00